�v������,���r���O(���x),�����t���O,���r���O(���x),�����t���O,��1(���x),�����t���O,��1(���x),�����t���O,��2���x),�����t���O,��3(���x),�����t���O,��4(���x),�����t���O,�C�ۑ�(���x),�����t���O,�C�ۑ�(���x),�����t���O
1/1/2003 0:00,4.6,0,58,0,15.8,0,55,0,14.7,0,15.9,0,14.5,0,6.1,0,73.8,0
1/1/2003 0:15,4.7,0,58,0,15.8,0,55,0,14.7,0,15.7,0,14.5,0,5.8,0,73.1,0
1/1/2003 0:30,4.7,0,58,0,15.8,0,54,0,14.7,0,15.7,0,14.5,0,5.6,0,72.3,0
1/1/2003 0:45,4.8,0,58,0,15.8,0,54,0,14.6,0,15.9,0,14.4,0,5.3,0,71.6,0
1/1/2003 1:00,4.8,0,58,0,15.8,0,54,0,14.6,0,16,0,14.4,0,5.1,0,70.8,0
1/1/2003 1:15,4.7,0,59,0,15.8,0,54,0,14.6,0,16.1,0,14.4,0,4.9,0,70.1,0
1/1/2003 1:30,4.6,0,59,0,15.7,0,53,0,14.6,0,16.1,0,14.4,0,4.8,0,69.3,0
1/1/2003 1:45,4.4,0,60,0,15.7,0,53,0,14.6,0,15.9,0,14.3,0,4.6,0,68.6,0
1/1/2003 2:00,4.4,0,60,0,15.7,0,53,0,14.5,0,15.8,0,14.3,0,4.5,0,67.8,0
1/1/2003 2:15,4.5,0,60,0,15.7,0,53,0,14.5,0,15.9,0,14.3,0,4.4,0,68.3,0
1/1/2003 2:30,4.4,0,60,0,15.6,0,52,0,14.5,0,15.8,0,14.2,0,4.4,0,68.8,0
1/1/2003 2:45,4.4,0,60,0,15.6,0,52,0,14.5,0,15.8,0,14.2,0,4.3,0,69.3,0
1/1/2003 3:00,4.2,0,60,0,15.6,0,52,0,14.4,0,15.7,0,14.2,0,4.3,0,69.8,0
1/1/2003 3:15,4,0,61,0,15.6,0,52,0,14.4,0,15.7,0,14.1,0,4.3,0,70.6,0
1/1/2003 3:30,3.7,0,64,0,15.5,0,52,0,14.4,0,15.6,0,14.1,0,4.3,0,71.3,0
1/1/2003 3:45,4,0,63,0,15.5,0,51,0,14.4,0,15.5,0,14.1,0,4.3,0,72.1,0
1/1/2003 4:00,3.8,0,64,0,15.5,0,51,0,14.3,0,15.6,0,14,0,4.3,0,72.8,0
1/1/2003 4:15,3.9,0,64,0,15.5,0,51,0,14.3,0,15.4,0,14,0,4.3,0,72.6,0
1/1/2003 4:30,3.9,0,65,0,15.4,0,51,0,14.3,0,15.5,0,14,0,4.2,0,72.3,0
1/1/2003 4:45,3.8,0,64,0,15.4,0,51,0,14.3,0,15.4,0,13.9,0,4.2,0,72.1,0
1/1/2003 5:00,3.8,0,62,0,15.4,0,51,0,14.2,0,15.4,0,13.9,0,4.2,0,71.8,0
1/1/2003 5:15,3.8,0,61,0,15.4,0,50,0,14.2,0,15.4,0,13.9,0,4.2,0,71.3,0
1/1/2003 5:30,3.9,0,60,0,15.3,0,50,0,14.2,0,15.3,0,13.9,0,4.2,0,70.8,0
1/1/2003 5:45,4,0,60,0,15.3,0,50,0,14.2,0,15.3,0,13.8,0,4.2,0,70.3,0
1/1/2003 6:00,3.9,0,59,0,15.4,0,50,0,14.1,0,15.2,0,13.8,0,4.2,0,69.8,0
1/1/2003 6:15,4,0,58,0,15.4,0,50,0,14.1,0,15.3,0,13.8,0,4.2,0,71.6,0
1/1/2003 6:30,3.9,0,57,0,15.3,0,49,0,14.1,0,15.2,0,13.8,0,4.1,0,73.3,0
1/1/2003 6:45,4,0,57,0,15.3,0,49,0,14.1,0,15.2,0,13.7,0,4.1,0,75.1,0
1/1/2003 7:00,4.1,0,57,0,15.3,0,49,0,14,0,15.3,0,13.7,0,4.1,0,76.8,0
1/1/2003 7:15,4,0,57,0,15.3,0,49,0,14,0,15.1,0,13.7,0,4,0,79.6,0
1/1/2003 7:30,3.9,0,59,0,15.3,0,49,0,14,0,15.2,0,13.6,0,3.8,0,82.3,0
1/1/2003 7:45,4,0,59,0,15.2,0,48,0,14,0,15,0,13.6,0,3.7,0,85.1,0
1/1/2003 8:00,4.2,0,58,0,15.3,0,48,0,14,0,15.1,0,13.6,0,3.6,0,87.8,0
1/1/2003 8:15,4,0,57,0,15.2,0,48,0,13.9,0,15,0,13.6,0,3.6,0,88.8,0
1/1/2003 8:30,3.8,0,59,0,15.2,0,48,0,13.9,0,15,0,13.6,0,3.6,0,89.8,0
1/1/2003 8:45,3.9,0,58,0,15.2,0,48,0,13.9,0,15.1,0,13.6,0,3.6,0,90.8,0
1/1/2003 9:00,4.3,0,57,0,15.2,0,48,0,13.9,0,15,0,13.6,0,3.6,0,91.8,0
1/1/2003 9:15,4.3,0,57,0,15.2,0,48,0,14,0,15,0,13.7,0,3.6,0,91.3,0
1/1/2003 9:30,4.2,0,56,0,15.2,0,48,0,13.9,0,14.9,0,13.7,0,3.5,0,90.8,0
1/1/2003 9:45,4.1,0,56,0,15.2,0,48,0,14,0,14.9,0,13.7,0,3.5,0,90.3,0
1/1/2003 10:00,4.1,0,56,0,15.2,0,48,0,14,0,14.9,0,13.7,0,3.5,0,89.8,0
1/1/2003 10:15,4.2,0,55,0,15.4,0,48,0,14.1,0,14.9,0,13.8,0,3.4,0,90.1,0
1/1/2003 10:30,4.5,0,54,0,15.4,0,48,0,14.2,0,14.9,0,13.8,0,3.4,0,90.3,0
1/1/2003 10:45,4.5,0,53,0,15.3,0,47,0,14.2,0,14.8,0,13.8,0,3.3,0,90.6,0
1/1/2003 11:00,4.9,0,52,0,15.3,0,47,0,14.2,0,15,0,13.8,0,3.3,0,90.8,0
1/1/2003 11:15,5.5,0,48,0,15.3,0,47,0,14.1,0,14.8,0,13.8,0,3.4,0,88.3,0
1/1/2003 11:30,5,0,47,0,15.3,0,47,0,14.1,0,14.8,0,13.8,0,3.6,0,85.8,0
1/1/2003 11:45,5,0,48,0,15.3,0,47,0,14.1,0,14.8,0,13.8,0,3.7,0,83.3,0
1/1/2003 12:00,4.9,0,47,0,15.3,0,47,0,14.1,0,14.8,0,13.8,0,3.9,0,80.8,0
1/1/2003 12:15,4.8,0,47,0,15.3,0,47,0,14.1,0,14.9,0,13.8,0,4,0,78.6,0
1/1/2003 12:30,5,0,46,0,15.4,0,47,0,14.2,0,15,0,14,0,4.1,0,76.3,0
1/1/2003 12:45,5,0,44,0,15.3,0,47,0,14.4,0,15.3,0,14.2,0,4.3,0,74.1,0
1/1/2003 13:00,5,0,45,0,15.4,0,47,0,14.5,0,15.1,0,14.4,0,4.4,0,71.8,0
1/1/2003 13:15,5.1,0,45,0,15.4,0,47,0,14.5,0,15.5,0,14.6,0,4.5,0,69.6,0
1/1/2003 13:30,5.1,0,45,0,15.5,0,47,0,14.7,0,15.8,0,15,0,4.6,0,67.3,0
1/1/2003 13:45,5.2,0,45,0,15.6,0,47,0,14.9,0,16,0,15.3,0,4.7,0,65.1,0
1/1/2003 14:00,5.3,0,47,0,15.7,0,47,0,15,0,15.9,0,15.6,0,4.8,0,62.8,0
1/1/2003 14:15,5.5,0,48,0,15.7,0,47,0,15,0,16.2,0,15.8,0,4.8,0,61.8,0
1/1/2003 14:30,5.5,0,47,0,15.7,0,47,0,15.1,0,16.6,0,16,0,4.9,0,60.8,0
1/1/2003 14:45,5.6,0,47,0,15.7,0,47,0,15.2,0,16.8,0,16.2,0,4.9,0,59.8,0
1/1/2003 15:00,5.7,0,48,0,15.7,0,47,0,15.2,0,16.7,0,16.4,0,5,0,58.8,0
1/1/2003 15:15,5.8,0,48,0,15.7,0,47,0,15.2,0,16.5,0,16.4,0,5,0,58.8,0
1/1/2003 15:30,5.8,0,48,0,15.7,0,47,0,15.2,0,16.7,0,16.6,0,4.9,0,58.8,0
1/1/2003 15:45,5.8,0,49,0,15.7,0,47,0,15.2,0,16.8,0,16.6,0,4.9,0,58.8,0
1/1/2003 16:00,5.8,0,50,0,15.7,0,47,0,15.1,0,16.4,0,16.5,0,4.9,0,58.8,0
1/1/2003 16:15,5.8,0,50,0,15.7,0,47,0,15.1,0,16.3,0,16.3,0,4.8,0,59.8,0
1/1/2003 16:30,5.7,0,52,0,15.6,0,47,0,15,0,15.9,0,15.9,0,4.7,0,60.8,0
1/1/2003 16:45,5.5,0,53,0,15.6,0,47,0,14.9,0,15.8,0,15.6,0,4.6,0,61.8,0
1/1/2003 17:00,5.4,0,54,0,15.6,0,46,0,14.8,0,15.6,0,15.4,0,4.5,0,62.8,0
1/1/2003 17:15,5.3,0,56,0,15.5,0,46,0,14.7,0,15.4,0,15.2,0,4.3,0,64.3,0
1/1/2003 17:30,5.2,0,57,0,15.5,0,46,0,14.7,0,15.5,0,15,0,4.1,0,65.8,0
1/1/2003 17:45,5.1,0,59,0,15.4,0,46,0,14.6,0,15.5,0,14.8,0,4,0,67.3,0
1/1/2003 18:00,4.8,0,58,0,15.4,0,45,0,14.6,0,15.7,0,14.7,0,3.8,0,68.8,0
1/1/2003 18:15,4.6,0,58,0,15.3,0,45,0,14.5,0,15.6,0,14.5,0,3.7,0,69.6,0
1/1/2003 18:30,4.5,0,59,0,15.4,0,45,0,14.5,0,15.6,0,14.4,0,3.5,0,70.3,0
1/1/2003 18:45,4.4,0,61,0,15.3,0,45,0,14.4,0,15.6,0,14.3,0,3.4,0,71.1,0
1/1/2003 19:00,4.4,0,60,0,15.3,0,45,0,14.3,0,15.6,0,14.2,0,3.3,0,71.8,0
1/1/2003 19:15,4.4,0,55,0,15.3,0,44,0,14.2,0,15.6,0,14.2,0,3.4,0,71.3,0
1/1/2003 19:30,4.7,0,55,0,15.2,0,44,0,14.2,0,15.5,0,14.1,0,3.4,0,70.8,0
1/1/2003 19:45,5,0,58,0,15.2,0,44,0,14.2,0,15.6,0,14.1,0,3.5,0,70.3,0
1/1/2003 20:00,5,0,57,0,15.2,0,44,0,14.1,0,15.5,0,14,0,3.6,0,69.8,0
1/1/2003 20:15,5,0,57,0,15.2,0,44,0,14.1,0,15.5,0,13.9,0,3.6,0,70.3,0
1/1/2003 20:30,5,0,57,0,15.1,0,44,0,14.1,0,15.5,0,13.9,0,3.5,0,70.8,0
1/1/2003 20:45,5.1,0,56,0,15.1,0,44,0,14.1,0,15.4,0,13.8,0,3.5,0,71.3,0
1/1/2003 21:00,4.9,0,55,0,15.1,0,44,0,14.1,0,15.3,0,13.8,0,3.5,0,71.8,0
1/1/2003 21:15,4.9,0,56,0,15.1,0,44,0,14,0,15.1,0,13.7,0,3.5,0,71.8,0
1/1/2003 21:30,5,0,58,0,15.1,0,44,0,14.1,0,15.1,0,13.7,0,3.5,0,71.8,0
1/1/2003 21:45,5,0,59,0,15,0,45,0,14,0,15,0,13.7,0,3.5,0,71.8,0
1/1/2003 22:00,5,0,57,0,15,0,45,0,14,0,15,0,13.7,0,3.5,0,71.8,0
1/1/2003 22:15,5,0,54,0,15,0,46,0,14,0,15,0,13.6,0,3.5,0,72.1,0
1/1/2003 22:30,4.9,0,56,0,15,0,46,0,14,0,14.9,0,13.6,0,3.4,0,72.3,0
1/1/2003 22:45,3.9,0,59,0,15,0,46,0,13.9,0,14.9,0,13.6,0,3.4,0,72.6,0
1/1/2003 23:00,3.6,0,62,0,15,0,46,0,13.9,0,14.8,0,13.6,0,3.4,0,72.8,0
1/1/2003 23:15,3.6,0,65,0,14.9,0,46,0,13.9,0,14.8,0,13.5,0,3.3,0,73.6,0
1/1/2003 23:30,3.6,0,67,0,14.9,0,46,0,13.9,0,14.9,0,13.5,0,3.2,0,74.3,0
1/1/2003 23:45,3.5,0,70,0,14.9,0,46,0,13.9,0,14.8,0,13.5,0,3.1,0,75.1,0
1/2/2003 0:00,3.3,0,75,0,14.9,0,46,0,13.9,0,14.6,0,13.5,0,3,0,75.8,0
1/2/2003 0:15,3.1,0,80,0,14.9,0,46,0,13.8,0,14.8,0,13.4,0,2.9,0,76.1,0
1/2/2003 0:30,2.8,0,83,0,14.9,0,46,0,13.8,0,14.9,0,13.4,0,2.9,0,76.3,0
1/2/2003 0:45,2.4,0,87,0,14.9,0,46,0,13.8,0,15,0,13.4,0,2.8,0,76.6,0
1/2/2003 1:00,2.5,0,87,0,14.9,0,47,0,13.8,0,15.2,0,13.4,0,2.8,0,76.8,0
1/2/2003 1:15,2.5,0,87,0,14.8,0,47,0,13.7,0,15.1,0,13.4,0,2.7,0,77.1,0
1/2/2003 1:30,2.3,0,88,0,14.8,0,47,0,13.7,0,15,0,13.3,0,2.6,0,77.3,0
1/2/2003 1:45,2.4,0,87,0,14.8,0,47,0,13.7,0,15,0,13.3,0,2.6,0,77.6,0
1/2/2003 2:00,2.3,0,87,0,14.7,0,47,0,13.6,0,14.8,0,13.3,0,2.5,0,77.8,0
1/2/2003 2:15,2,0,89,0,14.7,0,47,0,13.6,0,14.9,0,13.2,0,2.6,0,76.6,0
1/2/2003 2:30,1.8,0,90,0,14.7,0,47,0,13.6,0,14.7,0,13.2,0,2.7,0,75.3,0
1/2/2003 2:45,1.9,0,91,0,14.7,0,47,0,13.5,0,14.7,0,13.1,0,2.8,0,74.1,0
1/2/2003 3:00,2,0,90,0,14.6,0,47,0,13.5,0,14.7,0,13.1,0,2.9,0,72.8,0
1/2/2003 3:15,2,0,90,0,14.6,0,47,0,13.5,0,14.6,0,13.1,0,2.6,0,76.8,0
1/2/2003 3:30,1.9,0,90,0,14.6,0,47,0,13.5,0,14.6,0,13,0,2.2,0,80.8,0
1/2/2003 3:45,2.1,0,90,0,14.6,0,47,0,13.4,0,14.5,0,13,0,1.9,0,84.8,0
1/2/2003 4:00,2.3,0,89,0,14.6,0,47,0,13.4,0,14.6,0,13,0,1.6,0,88.8,0
1/2/2003 4:15,2.2,0,88,0,14.5,0,47,0,13.4,0,14.5,0,13,0,1.5,0,89.6,0
1/2/2003 4:30,2.3,0,88,0,14.5,0,47,0,13.4,0,14.5,0,12.9,0,1.4,0,90.3,0
1/2/2003 4:45,2.3,0,87,0,14.5,0,47,0,13.4,0,14.4,0,12.9,0,1.4,0,91.1,0
1/2/2003 5:00,2.1,0,87,0,14.5,0,47,0,13.3,0,14.5,0,12.9,0,1.3,0,91.8,0
1/2/2003 5:15,2.1,0,86,0,14.5,0,47,0,13.3,0,14.5,0,12.8,0,1.4,0,91.6,0
1/2/2003 5:30,2.1,0,86,0,14.5,0,47,0,13.3,0,14.3,0,12.8,0,1.4,0,91.3,0
1/2/2003 5:45,2.3,0,87,0,14.4,0,47,0,13.3,0,14.4,0,12.8,0,1.5,0,91.1,0
1/2/2003 6:00,2.2,0,86,0,14.4,0,47,0,13.2,0,14.1,0,12.7,0,1.6,0,90.8,0
1/2/2003 6:15,1.6,0,86,0,14.3,0,47,0,13.2,0,14.1,0,12.6,0,1.5,0,90.6,0
1/2/2003 6:30,1.4,0,84,0,14.2,0,46,0,13.1,0,13.9,0,12.5,0,1.4,0,90.3,0
1/2/2003 6:45,1.1,0,84,0,14.2,0,46,0,13.1,0,14.2,0,12.4,0,1.4,0,90.1,0
1/2/2003 7:00,1.2,0,80,0,14.2,0,46,0,13,0,14.2,0,12.4,0,1.3,0,89.8,0
1/2/2003 7:15,1.3,0,74,0,14.3,0,46,0,13.1,0,14.2,0,12.4,0,1.5,0,89.1,0
1/2/2003 7:30,1.3,0,72,0,14.5,0,44,0,13.3,0,14.4,0,12.3,0,1.6,0,88.3,0
1/2/2003 7:45,1.3,0,71,0,14.6,0,44,0,13.5,0,14.3,0,12.3,0,1.8,0,87.6,0
1/2/2003 8:00,1.5,0,69,0,14.8,0,44,0,13.8,0,14.4,0,12.3,0,2,0,86.8,0
1/2/2003 8:15,1.7,0,70,0,14.9,0,44,0,14,0,14.5,0,12.4,0,2.6,0,80.8,0
1/2/2003 8:30,1.8,0,67,0,15.1,0,43,0,14.2,0,14.5,0,12.5,0,3.1,0,74.8,0
1/2/2003 8:45,2,0,66,0,15.2,0,43,0,14.4,0,14.6,0,12.6,0,3.7,0,68.8,0
1/2/2003 9:00,2.1,0,63,0,15.3,0,43,0,14.6,0,14.6,0,12.8,0,4.3,0,62.8,0
1/2/2003 9:15,2.3,0,61,0,15.4,0,43,0,14.7,0,14.6,0,12.9,0,4.7,0,57,0
1/2/2003 9:30,2.3,0,61,0,15.4,0,43,0,14.9,0,14.6,0,12.9,0,5,0,51.3,0
1/2/2003 9:45,2.6,0,59,0,15.5,0,43,0,15,0,14.8,0,13,0,5.4,0,45.5,0
1/2/2003 10:00,2.7,0,56,0,15.7,0,43,0,15.1,0,14.7,0,13.1,0,5.8,0,39.8,0
1/2/2003 10:15,2.9,0,53,0,15.7,0,42,0,15.2,0,14.8,0,13.1,0,5.8,0,40,0
1/2/2003 10:30,2.9,0,52,0,15.8,0,42,0,15.2,0,14.9,0,13.2,0,5.9,0,40.3,0
1/2/2003 10:45,2.9,0,49,0,15.8,0,41,0,15.3,0,14.8,0,13.1,0,5.9,0,40.5,0
1/2/2003 11:00,3,0,45,0,15.9,0,41,0,15.3,0,15,0,13.2,0,6,0,40.8,0
1/2/2003 11:15,3.2,0,45,0,15.9,0,41,0,15.3,0,15,0,13.3,0,6,0,39.5,0
1/2/2003 11:30,3.3,0,45,0,15.8,0,41,0,15.3,0,15,0,13.3,0,6,0,38.3,0
1/2/2003 11:45,3.3,0,44,0,15.8,0,40,0,15.4,0,15,0,13.5,0,6.1,0,37,0
1/2/2003 12:00,3.2,0,42,0,15.8,0,41,0,15.3,0,15,0,13.6,0,6.1,0,35.8,0
1/2/2003 12:15,3.5,0,42,0,15.7,0,40,0,15.3,0,15.1,0,13.8,0,6.2,0,34.8,0
1/2/2003 12:30,3.7,0,40,0,15.7,0,41,0,15.3,0,15.2,0,14,0,6.4,0,33.8,0
1/2/2003 12:45,3.7,0,39,0,15.7,0,41,0,15.3,0,15.4,0,14.2,0,6.5,0,32.8,0
1/2/2003 13:00,3.8,0,38,0,15.6,0,41,0,15.3,0,15.6,0,14.5,0,6.7,0,31.8,0
1/2/2003 13:15,3.8,0,37,0,15.6,0,41,0,15.2,0,15.8,0,14.7,0,6.5,0,31.5,0
1/2/2003 13:30,3.9,0,37,0,15.6,0,40,0,15.2,0,15.9,0,14.9,0,6.4,0,31.3,0
1/2/2003 13:45,4,0,36,0,15.5,0,38,0,15.1,0,16.2,0,15.2,0,6.2,0,31,0
1/2/2003 14:00,4.1,0,36,0,15.5,0,38,0,15.1,0,16.2,0,15.3,0,6.1,0,30.8,0
1/2/2003 14:15,4,0,34,0,15.5,0,37,0,15.1,0,16.3,0,15.5,0,6,0,31,0
1/2/2003 14:30,4,0,34,0,15.5,0,37,0,15.1,0,16.4,0,15.6,0,5.9,0,31.3,0
1/2/2003 14:45,4,0,34,0,15.5,0,38,0,15.1,0,16.6,0,15.7,0,5.8,0,31.5,0
1/2/2003 15:00,4.1,0,35,0,15.6,0,38,0,15.1,0,16.6,0,15.8,0,5.7,0,31.8,0
1/2/2003 15:15,4,0,35,0,15.6,0,39,0,15.1,0,16.5,0,16,0,5.5,0,32,0
1/2/2003 15:30,4,0,35,0,15.5,0,38,0,15.1,0,16.4,0,16.2,0,5.3,0,32.3,0
1/2/2003 15:45,4.1,0,34,0,15.5,0,39,0,15,0,16.3,0,16.3,0,5.2,0,32.5,0
1/2/2003 16:00,3.9,0,33,0,15.5,0,38,0,14.9,0,16.1,0,16.2,0,5,0,32.8,0
1/2/2003 16:15,3.8,0,33,0,15.4,0,38,0,14.8,0,15.9,0,15.9,0,4.8,0,33.5,0
1/2/2003 16:30,3.5,0,34,0,15.4,0,37,0,14.6,0,15.6,0,15.5,0,4.6,0,34.3,0
1/2/2003 16:45,3.3,0,35,0,15.3,0,37,0,14.5,0,15.5,0,15.1,0,4.4,0,35,0
1/2/2003 17:00,3.2,0,36,0,15.2,0,37,0,14.4,0,15.4,0,14.8,0,4.2,0,35.8,0
1/2/2003 17:15,3.1,0,36,0,15.1,0,38,0,14.3,0,15.3,0,14.5,0,4.1,0,35.8,0
1/2/2003 17:30,3.2,0,38,0,15.8,0,39,0,14.8,0,15.9,0,14.3,0,4,0,35.8,0
1/2/2003 17:45,3.1,0,38,0,15.9,0,39,0,14.8,0,15.5,0,14.3,0,3.9,0,35.8,0
1/2/2003 18:00,2.9,0,37,0,15.2,0,40,0,14.2,0,15.4,0,14.3,0,3.8,0,35.8,0
1/2/2003 18:15,3,0,38,0,15.1,0,40,0,14,0,15.2,0,14.3,0,3.6,0,36,0
1/2/2003 18:30,3.1,0,39,0,15.3,0,39,0,14.2,0,15.8,0,14.1,0,3.5,0,36.3,0
1/2/2003 18:45,2.9,0,38,0,17.4,0,42,0,17,0,16.9,0,14.1,0,3.3,0,36.5,0
1/2/2003 19:00,2.9,0,40,0,18.4,0,43,0,17.9,0,17.5,0,14.1,0,3.2,0,36.8,0
1/2/2003 19:15,2.8,0,42,0,19.7,0,41,0,15.6,0,24.9,0,14.5,0,2.9,0,38.5,0
1/2/2003 19:30,2.7,0,41,0,21.7,0,40,0,14.9,0,21.4,0,14.2,0,2.7,0,40.3,0
1/2/2003 19:45,2.6,0,41,0,19.7,0,47,0,14.5,0,19.5,0,14.1,0,2.4,0,42,0
1/2/2003 20:00,2.7,0,41,0,18,0,45,0,14.3,0,19.1,0,14.1,0,2.2,0,43.8,0
1/2/2003 20:15,2.6,0,41,0,21.3,0,46,0,14.1,0,19.5,0,14,0,2.1,0,44.8,0
1/2/2003 20:30,2.6,0,41,0,21.8,0,48,0,14,0,20.3,0,14,0,2,0,45.8,0
1/2/2003 20:45,2.3,0,42,0,22.1,0,50,0,13.9,0,20.4,0,13.9,0,1.9,0,46.8,0
1/2/2003 21:00,2,0,45,0,20.4,0,43,0,16,0,19,0,13.9,0,1.8,0,47.8,0
1/2/2003 21:15,2.4,0,46,0,20,0,48,0,17.9,0,18.6,0,24.2,0,1.7,0,48.5,0
1/2/2003 21:30,2,0,47,0,20.8,0,48,0,17.6,0,18.6,0,25.1,0,1.6,0,49.3,0
1/2/2003 21:45,1.6,0,49,0,21.1,0,48,0,17.8,0,18.9,0,26,0,1.6,0,50,0
1/2/2003 22:00,1.8,0,48,0,21.6,0,48,0,17.2,0,19,0,26.7,0,1.5,0,50.8,0
1/2/2003 22:15,1.6,0,51,0,21.5,0,48,0,17.1,0,18.8,0,26.7,0,1.3,0,52.3,0
1/2/2003 22:30,1.2,0,51,0,21.3,0,48,0,17,0,18.5,0,26.8,0,1.1,0,53.8,0
1/2/2003 22:45,1.6,0,51,0,21.3,0,47,0,17.1,0,18.4,0,26.5,0,1,0,55.3,0
1/2/2003 23:00,1.8,0,50,0,20.9,0,48,0,17,0,18.2,0,26.6,0,0.8,0,56.8,0
1/2/2003 23:15,1.8,0,51,0,19.6,0,54,0,16.9,0,18.4,0,25.7,0,0.7,0,57.3,0
1/2/2003 23:30,1.8,0,47,0,19.2,0,54,0,16.6,0,17.3,0,25.6,0,0.6,0,57.8,0
1/2/2003 23:45,2,0,46,0,18.3,0,51,0,16.3,0,17.1,0,22.1,0,0.5,0,58.3,0
1/3/2003 0:00,1.8,0,45,0,17.9,0,47,0,16.3,0,17,0,20.7,0,0.4,0,58.8,0
1/3/2003 0:15,1.5,0,46,0,17.7,0,45,0,16.3,0,16.9,0,19.8,0,0.3,0,59,0
1/3/2003 0:30,1.5,0,47,0,17.5,0,45,0,16.1,0,16.7,0,19,0,0.2,0,59.3,0
1/3/2003 0:45,1.3,0,48,0,17.4,0,44,0,16,0,16.7,0,18.4,0,0.2,0,59.5,0
1/3/2003 1:00,1.2,0,48,0,17.3,0,43,0,15.7,0,16.5,0,17.9,0,0.1,0,59.8,0
1/3/2003 1:15,1.1,0,47,0,17.2,0,42,0,15.6,0,16.5,0,17.6,0,0.1,0,59.3,0
1/3/2003 1:30,1.1,0,47,0,17.1,0,41,0,15.5,0,16.2,0,17.3,0,0.1,0,58.8,0
1/3/2003 1:45,1,0,48,0,17,0,41,0,15.4,0,16,0,17,0,0.1,0,58.3,0
1/3/2003 2:00,0.9,0,49,0,16.9,0,41,0,15.3,0,15.9,0,16.7,0,0.1,0,57.8,0
1/3/2003 2:15,0.6,0,50,0,16.9,0,41,0,15.3,0,16,0,16.5,0,0,0,57.5,0
1/3/2003 2:30,0.5,0,51,0,16.8,0,40,0,15.2,0,15.9,0,16.4,0,-0.1,0,57.3,0
1/3/2003 2:45,0.2,0,49,0,16.8,0,40,0,15.1,0,15.9,0,16.2,0,-0.3,0,57,0
1/3/2003 3:00,0.3,0,49,0,16.7,0,40,0,14.9,0,16,0,16.1,0,-0.4,0,56.8,0
1/3/2003 3:15,0.3,0,51,0,16.6,0,41,0,14.8,0,15.7,0,15.9,0,-0.5,0,57.3,0
1/3/2003 3:30,-0.1,0,53,0,16.6,0,41,0,14.7,0,15.6,0,15.8,0,-0.6,0,57.8,0
1/3/2003 3:45,-0.2,0,53,0,16.5,0,40,0,14.8,0,15.7,0,15.7,0,-0.8,0,58.3,0
1/3/2003 4:00,-0.2,0,53,0,16.4,0,40,0,14.8,0,15.4,0,15.6,0,-0.9,0,58.8,0
1/3/2003 4:15,-0.1,0,53,0,16.4,0,40,0,14.6,0,15.5,0,15.5,0,-0.9,0,58.5,0
1/3/2003 4:30,-0.1,0,52,0,16.3,0,40,0,14.6,0,15.5,0,15.4,0,-0.9,0,58.3,0
1/3/2003 4:45,-0.2,0,54,0,16.3,0,40,0,14.5,0,15.4,0,15.3,0,-1,0,58,0
1/3/2003 5:00,0,0,53,0,16.3,0,40,0,14.5,0,15.4,0,15.2,0,-1,0,57.8,0
1/3/2003 5:15,0,0,52,0,16.2,0,40,0,14.4,0,15.2,0,15.1,0,-1,0,58,0
1/3/2003 5:30,0.1,0,51,0,16.2,0,40,0,14.3,0,15.2,0,15,0,-1,0,58.3,0
1/3/2003 5:45,0,0,52,0,16.2,0,40,0,14.2,0,15.2,0,14.9,0,-1,0,58.5,0
1/3/2003 6:00,0.3,0,50,0,16.1,0,40,0,14.1,0,15.2,0,14.8,0,-1,0,58.8,0
1/3/2003 6:15,0.3,0,50,0,16.1,0,40,0,14,0,15.2,0,14.7,0,-0.9,0,58.5,0
1/3/2003 6:30,0.3,0,52,0,16.1,0,40,0,14,0,14.9,0,14.7,0,-0.8,0,58.3,0
1/3/2003 6:45,0,0,56,0,16,0,39,0,14,0,15.2,0,14.6,0,-0.7,0,58,0
1/3/2003 7:00,-0.3,0,58,0,16,0,39,0,14,0,15.1,0,14.5,0,-0.6,0,57.8,0
1/3/2003 7:15,-0.3,0,61,0,16,0,39,0,13.9,0,15,0,14.4,0,-0.5,0,57.5,0
1/3/2003 7:30,-0.2,0,62,0,15.9,0,39,0,13.8,0,14.9,0,14.4,0,-0.4,0,57.3,0
1/3/2003 7:45,-0.2,0,61,0,15.9,0,39,0,13.8,0,14.8,0,14.4,0,-0.4,0,57,0
1/3/2003 8:00,0,0,61,0,15.8,0,40,0,14,0,13.7,0,14.3,0,-0.3,0,56.8,0
1/3/2003 8:15,0.1,0,60,0,16,0,44,0,13.9,0,14.1,0,14.3,0,-0.1,0,56.8,0
1/3/2003 8:30,0.2,0,61,0,18.5,0,45,0,14.2,0,21.4,0,14.6,0,0,0,56.8,0
1/3/2003 8:45,0.2,0,62,0,17.8,0,47,0,16.6,0,15.6,0,14.8,0,0.1,0,56.8,0
1/3/2003 9:00,0.2,0,61,0,19,0,49,0,17.3,0,27.6,0,14.8,0,0.3,0,56.8,0
1/3/2003 9:15,0.1,0,61,0,19.7,0,48,0,18.1,0,18.2,0,14.6,0,0.5,0,56.5,0
1/3/2003 9:30,0.3,0,61,0,19,0,48,0,17.8,0,16.3,0,15,0,0.7,0,56.3,0
1/3/2003 9:45,0.5,0,60,0,19.1,0,48,0,18,0,23.4,0,15.3,0,1,0,56,0
1/3/2003 10:00,0.5,0,58,0,19.5,0,49,0,18.4,0,18.2,0,15,0,1.2,0,55.8,0
1/3/2003 10:15,0.6,0,59,0,17.6,0,53,0,16.2,0,18,0,14.4,0,1.3,0,55.5,0
1/3/2003 10:30,0.8,0,59,0,18.1,0,54,0,16.1,0,18.4,0,14,0,1.4,0,55.3,0
1/3/2003 10:45,0.6,0,56,0,19.9,0,55,0,17.1,0,18.4,0,13.5,0,1.5,0,55,0
1/3/2003 11:00,0.9,0,55,0,18.6,0,59,0,17,0,18.2,0,13.3,0,1.6,0,54.8,0
1/3/2003 11:15,1,0,54,0,17.8,0,58,0,16.3,0,17.8,0,13.2,0,1.6,0,55.3,0
1/3/2003 11:30,1,0,54,0,17.6,0,59,0,16.2,0,17.7,0,14,0,1.6,0,55.8,0
1/3/2003 11:45,1.2,0,55,0,18.1,0,60,0,16.5,0,18.1,0,15,0,1.7,0,56.3,0
1/3/2003 12:00,1.5,0,55,0,17.8,0,61,0,16.6,0,17.7,0,14.8,0,1.7,0,56.8,0
1/3/2003 12:15,1.4,0,53,0,18,0,61,0,16.8,0,27.4,0,14.8,0,1.7,0,57.8,0
1/3/2003 12:30,1.5,0,52,0,18.7,0,60,0,17,0,28.9,0,18.3,0,1.6,0,58.8,0
1/3/2003 12:45,1.4,0,59,0,18.3,0,56,0,16.6,0,30.6,0,21.4,0,1.6,0,59.8,0
1/3/2003 13:00,1.2,0,67,0,17.4,0,57,0,16,0,23.2,0,18.7,0,1.6,0,60.8,0
1/3/2003 13:15,1.2,0,70,0,19.4,0,57,0,17,0,21.3,0,17.6,0,1.6,0,62.3,0
1/3/2003 13:30,1,0,69,0,18.4,0,59,0,16.7,0,19.9,0,17.1,0,1.5,0,63.8,0
1/3/2003 13:45,1.1,0,72,0,18.4,0,59,0,17,0,18.9,0,16.7,0,1.5,0,65.3,0
1/3/2003 14:00,1,0,72,0,18.4,0,60,0,16.9,0,19.5,0,16.2,0,1.5,0,66.8,0
1/3/2003 14:15,0.8,0,73,0,18.9,0,57,0,17.3,0,18.9,0,15.2,0,1.5,0,68.3,0
1/3/2003 14:30,1,0,76,0,16.8,0,58,0,15.8,0,18.1,0,15.1,0,1.5,0,69.8,0
1/3/2003 14:45,0.8,0,76,0,16.4,0,60,0,15.4,0,17.8,0,14.9,0,1.6,0,71.3,0
1/3/2003 15:00,0.9,0,76,0,16.1,0,60,0,15,0,17.5,0,14.6,0,1.6,0,72.8,0
1/3/2003 15:15,0.8,0,77,0,15.9,0,60,0,14.7,0,17.2,0,14.4,0,1.5,0,74.6,0
1/3/2003 15:30,0.8,0,77,0,15.7,0,59,0,14.4,0,17.1,0,14.2,0,1.3,0,76.3,0
1/3/2003 15:45,0.8,0,78,0,16.7,0,58,0,15.1,0,18.2,0,13.9,0,1.2,0,78.1,0
1/3/2003 16:00,0.8,0,78,0,17.3,0,58,0,15.8,0,17.8,0,14.1,0,1.1,0,79.8,0
1/3/2003 16:15,0.8,0,79,0,18.3,0,57,0,16.7,0,17.9,0,14.1,0,1.1,0,81.1,0
1/3/2003 16:30,0.8,0,81,0,18.6,0,56,0,17.2,0,18.5,0,13.6,0,1.1,0,82.3,0
1/3/2003 16:45,0.5,0,81,0,19.5,0,55,0,17.7,0,19.5,0,13.3,0,1.1,0,83.6,0
1/3/2003 17:00,0.4,0,82,0,19.1,0,54,0,17.1,0,18.6,0,13.7,0,1.1,0,84.8,0
1/3/2003 17:15,0.5,0,83,0,19.9,0,53,0,18.3,0,17,0,13.7,0,0.9,0,86.1,0
1/3/2003 17:30,0.6,0,84,0,19.3,0,54,0,18.4,0,16.9,0,13.7,0,0.8,0,87.3,0
1/3/2003 17:45,0.7,0,85,0,19.4,0,54,0,18.4,0,17.6,0,14.2,0,0.6,0,88.6,0
1/3/2003 18:00,0.4,0,86,0,21.3,0,53,0,25.4,0,18,0,14.2,0,0.5,0,89.8,0
1/3/2003 18:15,0.5,0,87,0,22.9,0,50,0,27.1,0,19,0,14.1,0,0.5,0,90.8,0
1/3/2003 18:30,0.5,0,87,0,22.4,0,50,0,25.4,0,18.1,0,13.8,0,0.4,0,91.8,0
1/3/2003 18:45,0.6,0,88,0,19.2,0,53,0,27.4,0,19.1,0,14.3,0,0.4,0,92.8,0
1/3/2003 19:00,0.7,0,88,0,23.1,0,50,0,27.5,0,22.5,0,13.9,0,0.4,0,93.8,0
1/3/2003 19:15,0.8,0,88,0,21.6,0,55,0,30.6,0,20.9,0,13.8,0,0.4,0,94.1,0
1/3/2003 19:30,0.6,0,88,0,21.3,0,56,0,28.5,0,20.2,0,13.8,0,0.4,0,94.3,0
1/3/2003 19:45,0.6,0,88,0,21.2,0,56,0,28,0,20,0,13.7,0,0.5,0,94.6,0
1/3/2003 20:00,0.5,0,88,0,21.3,0,56,0,28.1,0,20.7,0,13.6,0,0.5,0,94.8,0
1/3/2003 20:15,0.5,0,88,0,20.7,0,57,0,27.9,0,20,0,13.6,0,0.5,0,95.1,0
1/3/2003 20:30,0.6,0,89,0,21.4,0,56,0,27.8,0,20.4,0,13.6,0,0.5,0,95.3,0
1/3/2003 20:45,0.6,0,89,0,21.7,0,54,0,23.2,0,20.3,0,17.5,0,0.5,0,95.6,0
1/3/2003 21:00,0.6,0,89,0,21.4,0,57,0,22.6,0,20.8,0,20,0,0.5,0,95.8,0
1/3/2003 21:15,0.7,0,89,0,21.1,0,60,0,22.1,0,20.3,0,21.4,0,0.5,0,96.1,0
1/3/2003 21:30,0.7,0,89,0,21.2,0,59,0,21.7,0,20.5,0,22.3,0,0.5,0,96.3,0
1/3/2003 21:45,0.7,0,88,0,21.2,0,58,0,21.3,0,19.8,0,22.8,0,0.5,0,96.6,0
1/3/2003 22:00,0.6,0,89,0,20.5,0,61,0,20.8,0,19.3,0,23,0,0.5,0,96.8,0
1/3/2003 22:15,0.6,0,89,0,20.8,0,61,0,20,0,20.2,0,23.1,0,0.5,0,96.8,0
1/3/2003 22:30,0.6,0,90,0,21.9,0,55,0,19.5,0,20.1,0,23.9,0,0.5,0,96.8,0
1/3/2003 22:45,0.6,0,91,0,21.4,0,56,0,19.2,0,19.9,0,23.9,0,0.6,0,96.8,0
1/3/2003 23:00,0.7,0,91,0,20.6,0,58,0,18.9,0,19.1,0,24,0,0.6,0,96.8,0
1/3/2003 23:15,0.7,0,91,0,19.7,0,56,0,18.9,0,18.5,0,24,0,0.6,0,97.1,0
1/3/2003 23:30,0.7,0,92,0,19.3,0,55,0,18.6,0,18.8,0,21.4,0,0.6,0,97.3,0
1/3/2003 23:45,0.7,0,92,0,19,0,54,0,18.1,0,18.7,0,20.3,0,0.7,0,97.6,0
1/4/2003 0:00,0.8,0,92,0,18.9,0,53,0,17.9,0,18.2,0,19.5,0,0.7,0,97.8,0
1/4/2003 0:15,0.9,0,93,0,18.7,0,53,0,17.7,0,18.4,0,18.9,0,0.7,0,97.8,0
1/4/2003 0:30,1.1,0,93,0,18.5,0,52,0,17.5,0,18.1,0,18.3,0,0.7,0,97.8,0
1/4/2003 0:45,1.1,0,93,0,18.4,0,52,0,17.3,0,17.9,0,17.9,0,0.7,0,97.8,0
1/4/2003 1:00,1.1,0,93,0,18.3,0,52,0,17.1,0,17.6,0,17.6,0,0.7,0,97.8,0
1/4/2003 1:15,1.3,0,92,0,18.2,0,51,0,16.9,0,17.4,0,17.3,0,0.8,0,97.6,0
1/4/2003 1:30,1.3,0,92,0,18.1,0,51,0,16.8,0,17.3,0,17.1,0,0.8,0,97.3,0
1/4/2003 1:45,1.3,0,92,0,18,0,51,0,16.8,0,16.8,0,16.8,0,0.9,0,97.1,0
1/4/2003 2:00,1.5,0,92,0,18,0,50,0,16.7,0,16.6,0,16.6,0,1,0,96.8,0
1/4/2003 2:15,1.3,0,91,0,17.9,0,50,0,16.5,0,16.8,0,16.5,0,1.2,0,96.6,0
1/4/2003 2:30,1.5,0,92,0,17.8,0,50,0,16.3,0,16.3,0,16.3,0,1.5,0,96.3,0
1/4/2003 2:45,1.5,0,91,0,17.8,0,50,0,16.2,0,16.3,0,16.1,0,1.7,0,96.1,0
1/4/2003 3:00,1.5,0,91,0,17.7,0,50,0,16.2,0,16.4,0,15.9,0,2,0,95.8,0
1/4/2003 3:15,1.6,0,91,0,17.7,0,50,0,16.1,0,15.6,0,15.8,0,2.3,0,95.3,0
1/4/2003 3:30,1.7,0,91,0,17.6,0,49,0,16,0,15.8,0,15.7,0,2.5,0,94.8,0
1/4/2003 3:45,1.6,0,91,0,17.6,0,49,0,15.9,0,16.2,0,15.6,0,2.8,0,94.3,0
1/4/2003 4:00,1.6,0,91,0,17.5,0,49,0,15.8,0,16.3,0,15.5,0,3.1,0,93.8,0
1/4/2003 4:15,1.6,0,91,0,17.5,0,48,0,15.7,0,16.6,0,15.4,0,3.2,0,93.3,0
1/4/2003 4:30,1.7,0,91,0,17.4,0,48,0,15.6,0,16.2,0,15.2,0,3.3,0,92.8,0
1/4/2003 4:45,1.6,0,91,0,17.4,0,48,0,15.4,0,16.2,0,15.2,0,3.5,0,92.3,0
1/4/2003 5:00,1.6,0,91,0,17.4,0,47,0,15.3,0,16.4,0,15.1,0,3.6,0,91.8,0
1/4/2003 5:15,1.6,0,91,0,17.4,0,47,0,15.2,0,16.7,0,15.1,0,3.7,0,92.6,0
1/4/2003 5:30,1.5,0,91,0,17.3,0,48,0,15.1,0,16.5,0,15,0,3.8,0,93.3,0
1/4/2003 5:45,1.5,0,91,0,17.3,0,48,0,15.1,0,16.4,0,14.9,0,3.9,0,94.1,0
1/4/2003 6:00,1.5,0,91,0,17.3,0,49,0,15,0,15.9,0,14.9,0,4,0,94.8,0
1/4/2003 6:15,1.5,0,91,0,19,0,49,0,14.9,0,17.4,0,14.8,0,3.6,0,95.6,0
1/4/2003 6:30,1.5,0,91,0,19,0,52,0,16.5,0,15.5,0,14.7,0,3.1,0,96.3,0
1/4/2003 6:45,1.3,0,91,0,18.4,0,56,0,16.3,0,16.6,0,14.6,0,2.7,0,97.1,0
1/4/2003 7:00,1.5,0,92,0,18.7,0,55,0,15.4,0,16.9,0,15.8,0,2.3,0,97.8,0
1/4/2003 7:15,1.3,0,91,0,17.4,0,58,0,15.5,0,16.9,0,15.7,0,2.6,0,97.3,0
1/4/2003 7:30,1.4,0,91,0,17.4,0,59,0,15.3,0,16.5,0,15.7,0,2.8,0,96.8,0
1/4/2003 7:45,1.4,0,91,0,17.4,0,57,0,15.4,0,16.4,0,15.6,0,3.1,0,96.3,0
1/4/2003 8:00,1.6,0,91,0,17.6,0,56,0,15.5,0,16.2,0,15.7,0,3.4,0,95.8,0
1/4/2003 8:15,1.8,0,91,0,17.6,0,57,0,15.6,0,16,0,15.7,0,4,0,94.6,0
1/4/2003 8:30,1.9,0,92,0,17.7,0,57,0,15.8,0,16.1,0,15.7,0,4.7,0,93.3,0
1/4/2003 8:45,2,0,92,0,17.8,0,57,0,15.9,0,15.9,0,15.7,0,5.3,0,92.1,0
1/4/2003 9:00,2.1,0,92,0,17.8,0,57,0,16,0,16,0,15.8,0,6,0,90.8,0
1/4/2003 9:15,2.3,0,92,0,17.9,0,57,0,16.1,0,16.6,0,15.8,0,6.7,0,88.1,0
1/4/2003 9:30,2.6,0,92,0,18,0,55,0,16.3,0,16.3,0,15.8,0,7.4,0,85.3,0
1/4/2003 9:45,2.6,0,92,0,18.1,0,56,0,16.4,0,16.1,0,15.9,0,8.2,0,82.6,0
1/4/2003 10:00,2.8,0,92,0,18.1,0,56,0,16.4,0,16.3,0,15.9,0,8.9,0,79.8,0
1/4/2003 10:15,3,0,92,0,18.1,0,55,0,16.5,0,16.3,0,15.9,0,9.6,0,74.1,0
1/4/2003 10:30,3.5,0,94,0,18.2,0,55,0,16.5,0,16.5,0,16,0,10.2,0,68.3,0
1/4/2003 10:45,3.6,0,95,0,18.2,0,55,0,16.6,0,16,0,16,0,10.9,0,62.6,0
1/4/2003 11:00,4.1,0,95,0,18.2,0,55,0,16.6,0,16.7,0,16,0,11.6,0,56.8,0